Regional Weather Roundup
Issued by NWS

Home | Current Version | Previous Version | Graphics & Text | Print | Product List | Glossary On
Versions: 1 2 3 4 5 6 7 8 9 10 11 12 13 14 15 16 17 18 19 20 21 22 23 24 25 26 27 28 29 30 31 32 33 34 35 36 37 38 39 40 41 42 43 44 45 46 47 48 49 50
000
ASUS43 KLOT 291104
RWRIL

ILLINOIS REGIONAL WEATHER ROUNDUP
NATIONAL WEATHER SERVICE CHICAGO/ROMEOVILLE IL
600 AM CDT SAT JUL 29 2017

NOTE: "FAIR" INDICATES FEW OR NO CLOUDS BELOW 12,000 FEET WITH NO
SIGNIFICANT WEATHER AND/OR OBSTRUCTIONS TO VISIBILITY.

* THESE STATIONS ARE NOT UNDER NWS QUALITY CONTROL. THEY ALSO MAY NOT
  REPORT WEATHER SUCH AS PRECIPITATION OR FOG.

ILZ001-002-007-009-015-016-024-291200-
NORTHWEST ILLINOIS

CITY           SKY/WX    TMP DP  RH WIND       PRES   REMARKS
MOLINE         CLEAR     58  55  90 CALM      30.10R
STERLING*      CLEAR     59  57  93 NE5       30.10R
SAVANNA*       CLEAR     58  56  92 N5        30.11S
$$

ILZ003-004-008-010-011-017-018-291200-
NORTH CENTRAL ILLINOIS

CITY           SKY/WX    TMP DP  RH WIND       PRES   REMARKS
ROCKFORD       CLEAR     63  58  83 N6        30.12R
FREEPORT*      CLEAR     55  54  98 N5        30.14R
ROCHELLE*      CLEAR     57  56  97 NE3       30.11R
DE KALB*       CLEAR     57  56  97 NE6       30.12R
PERU*          CLEAR     58  56  94 NE8       30.09R
$$

ILZ005-006-012>014-019>023-291200-
NORTHEAST ILLINOIS

CITY           SKY/WX    TMP DP  RH WIND       PRES   REMARKS
CHICAGO-OHARE  CLEAR     64  51  62 NE7       30.10R
CHICAGO-MIDWAY PTCLDY    66  51  58 NE12      30.09R
AURORA         CLEAR     59  57  93 NE6       30.10R
LANSING*       CLEAR     57  49  73 CALM      30.09R
JOLIET*        CLEAR     63  53  70 NE6       30.09R
WAUKEGAN       CLEAR     61  53  75 NE6       30.11R
DUPAGE AIRPORT CLEAR     55  54  96 N6        30.10R
WHEELING       CLEAR     62  55  77 CALM      30.12R
MORRIS*        CLEAR     59  56  90 CALM      30.08R
ROMEOVILLE*    CLEAR     61  50  68 NE9       30.09R
NORTHERLY ISL    N/A     66  52  60 NE15        N/A
$$

LMZ740>746-291200-
SOUTHERN LAKE MICHIGAN

STATION/POSITION SKY/WX   TEMP    WIND        PRES    VSBY  WAVE
                          AIR SEA DIR/SP/G                  HT/PER
                          (F)     (DEG/KT/KT) (MB)    (MI)  (FT/S)
SOUTHERN BUOY              68 72   50/ 16/ 17 1019.0          3/ 4
WILMETTE HARBOR            67 71   70/ 14/ 17   N/A           5/ 5
HARRISON CRIB              67      70/ 16/ 18   N/A
BURNHAM HARBOR             67                   N/A
CALUMET HARBOR             66      40/  9/ 13 1018.3R
BURNS HARBOR               65      80/ 14/ 21 1019.0R
MICHIGAN CITY              61      50/ 16/ 18   N/A
MICHIGAN CITY 6N           65 72   70/ 17/ 21   N/A           5/ 6
ST. JOSEPH                 61 70   80/ 12/ 16 1019.1R         3/ 5
$$

ILZ025>027-034>036-040-047-049-050-058-095>099-291200-
WEST-CENTRAL ILLINOIS

CITY           SKY/WX    TMP DP  RH WIND       PRES   REMARKS
QUINCY         CLEAR     58  56  93 N6        30.06R
GALESBURG*     PTCLDY    55  54  99 CALM      30.09R
MACOMB*        CLEAR     57  56  95 N3        30.09S
JACKSONVILLE*  CLEAR     60  58  91 N6        30.05S
PITTSFIELD*    CLEAR     62  59  92 N3        30.07R
$$

ILZ028>032-037-038-041>044-048-051>054-059>061-291200-
CENTRAL ILLINOIS

CITY           SKY/WX    TMP DP  RH WIND       PRES   REMARKS
PONTIAC        CLEAR     60  59  98 NE7       30.08R
BLOOMINGTON    CLEAR     58  56  93 N8        30.07R
DECATUR        CLEAR     59  57  93 NE6       30.04R
PEORIA         PTCLDY    61  59  93 N3        30.07R
LACON*         CLEAR     58  58  98 CALM      30.07R
LINCOLN*       CLEAR     59  59  98 N3        30.05S
SPRINGFIELD    CLEAR     61  59  93 NE6       30.05R
TAYLORVILLE    CLEAR     58  58  99 N3        30.04R
$$

ILZ033-039-045-046-055>057-062-063-291200-
EAST-CENTRAL ILLINOIS

CITY           SKY/WX    TMP DP  RH WIND       PRES   REMARKS
CHAMPAIGN      CLEAR     61  56  83 NE9       30.04R
RANTOUL*       CLEAR     62  58  88 NE8       30.06R
MATTOON        CLEAR     58  58 100 N5        30.02R
$$

ILZ079-100>102-291200-
SOUTHWEST ILLINOIS

CITY           SKY/WX    TMP DP  RH WIND       PRES   REMARKS
ALTON          CLEAR     61  61  99 CALM      30.03R
BELLEVILLE     PTCLDY    64  61  90 N6        30.02R
CAHOKIA*       PTCLDY    65  60  84 NE6       30.01R
SPARTA*        PTCLDY    63  62  96 NE6       30.01R
$$

ILZ064>066-069>071-074>076-080>082-084>086-088>090-092>094-291200-
SOUTH-CENTRAL ILLINOIS

CITY           SKY/WX    TMP DP  RH WIND       PRES   REMARKS
CARBONDALE     PTCLDY    63  63 100 CALM      29.98R
CAIRO*         CLEAR     67  64  90 N7        29.95R
EFFINGHAM*     CLEAR     62  61  97 CALM      30.03R
MARION         CLEAR     66  64  94 N6        29.99R
MT. VERNON     CLEAR     64  62  93 NE6       30.00R
CENTRALIA*     CLEAR     64  63  96 CALM      30.00R
SALEM*         CLEAR     64  61  88 NE5       30.01R
METROPOLIS*    PTCLDY    65  63  92 CALM      29.96R
$$

ILZ067-068-072-073-078-083-087-091-291200-
SOUTHEAST ILLINOIS

CITY           SKY/WX    TMP DP  RH WIND       PRES   REMARKS
LAWRENCEVILLE  CLEAR     63  61  93 N8        29.99R
FLORA*         CLEAR     64  62  93 N5        30.00R
FAIRFIELD*     CLEAR     63  63  98 CALM      29.98R
HARRISBURG*    CLEAR     65  64  95 N7        29.98R
ROBINSON*      CLEAR     61  60  97 N6        30.01R
CARMI*         CLEAR     63  62  97 N3        29.97R
$$

ABBREVIATIONS USED IN REMARKS
   TC - TEMPERATURE IN CELSIUS
  WCI - WIND CHILL INDEX
   HX - HEAT INDEX
  VSB - VISIBILITY
$$




USA.gov is the U.S. government's official web portal to all federal, state and local government web resources and services.